Flag for U.S.A. Weather past 2 weeks in Pensacola, Florida, U.S.A.

Now
70 °F

Scattered clouds.


Feels Like: 68 °F
Forecast: 62 / 79 °F
Wind: 6 mph from South

Location: Pensacola Regional Airport


UV Index: 7 (High)

Visibility: 7 mi


Pressure: 29.98 "Hg

Humidity: 87%

Dew point: 66 °F

Location of PensacolaLocation

Historic Weather in Pensacola

°F

Pensacola temperature yesterday

Maximum temperature yesterday: 82 °F (at 12:53 PM)
Minimum temperature yesterday: 63 °F (at 4:53 AM)
Average temperature yesterday: 72 °F

Past Weeks' High & Low Weather Summary

 TemperatureHumidityPressure
High82 °F (Apr 23, 12:53 PM)94% (Apr 24, 5:53 AM)30.29 "Hg (Apr 24, 5:53 AM)
Low42 °F (Apr 16, 5:53 AM)23% (Apr 9, 4:53 PM)29.74 "Hg (Apr 14, 8:53 PM)
Average65 °F71%30.07 "Hg
* Reported Apr 9 7:53 AM — Apr 24 7:00 AM, Pensacola, Weather by CustomWeather, © 2014

Note: Actual official high and low records may vary slightly from our data, if they occured in-between our weather recording intervals... More about our weather records

Advertising

Historic Weather Conditions — Data for Previous 24 hours

 ConditionsComfort  
Time TempWeatherWind HumidityBarometerVisibility
7:00 AM
Apr 24
67 °FFog.No wind93%29.98 "Hg4 mi
6:02 AM65 °FFog.No wind94%29.95 "Hg3 mi
5:53 AM65 °FFog.No wind94%29.95 "Hg4 mi
4:53 AM68 °FFog.5 mph90%29.93 "Hg6 mi
3:53 AM67 °FFog.No wind90%29.93 "Hg4 mi
2:53 AM67 °FFog.No wind90%29.92 "Hg6 mi
1:53 AM66 °FFog.3 mph90%29.92 "Hg6 mi
12:53 AM67 °FPassing clouds.No wind87%29.93 "Hg8 mi
11:53 PM
Apr 23
69 °FPassing clouds.3 mph84%29.94 "Hg9 mi
10:53 PM68 °FClear.3 mph87%29.94 "Hg10 mi
9:53 PM69 °FClear.7 mph84%29.94 "Hg10 mi
8:53 PM70 °FClear.6 mph76%29.93 "Hg10 mi
7:53 PM71 °FClear.8 mph73%29.91 "Hg10 mi
6:53 PM74 °FPassing clouds.9 mph67%29.89 "Hg10 mi
5:53 PM76 °FSunny.12 mph67%29.89 "Hg10 mi
4:53 PM79 °FPassing clouds.9 mph58%29.89 "Hg10 mi
3:53 PM80 °FScattered clouds.10 mph54%29.90 "Hg10 mi
2:53 PM79 °FSunny.12 mph58%29.91 "Hg10 mi
1:53 PM78 °FScattered clouds.10 mph56%29.93 "Hg10 mi
12:53 PM82 °FScattered clouds.5 mph46%29.93 "Hg10 mi
11:53 AM80 °FSunny.8 mph51%29.96 "Hg10 mi
10:53 AM78 °FSunny.6 mph56%29.97 "Hg10 mi
9:53 AM74 °FSunny.7 mph64%29.98 "Hg10 mi
8:53 AM71 °FSunny.5 mph73%29.97 "Hg10 mi
Weather by CustomWeather, © 2014

See weather overview